SCP
0 0 0 0 0 0 0 0 0 0 0 0 0 0 0 0 0 0 0 0 0 0 0 0 0 0 0 0 0 0 0 0 0 0 0 0 0 0 0 0 0 0 0
0 0 0 0 0 0 0 0 0 0 0 0 0 0 0 0 0 0 0 0 0 0 0 0 0 0 0 0 0 0 0 0 0 0 0 0 0 0 0 0 0 0 0
0 0 0 0 0 0 0 0 0 0 0 0 0 0 0 0 0 0 0 0 0 0 0 0 0 0 0 0 0 0 0 0 0 0 0 0 0 0 0 0 0 0 0
0 0 0 0 0 0 0 0 0 0 0 0 0 0 0 0 0 0 0 0 0 0 0 0 0 0 0 0 0 0 0 0 0 0 0 0 0 0 0 0 0 0 0
0 0 0 0 0 0 0 0 0 0 0 0 0 0 0 0 0 0 0 0 0 0 0 0 0 0 0 0 0 0 0 0 0 0 0 0 0 0 0 0 0 0 0
0 0 0 0 0 0 0 0 0 0 0 0 0 0 0 0 0 0 0 0 0 0 0 0 0 0 0 0 0 0 0 0 0 0 0 0 0 0 0 0 0 0 0
0 0 0 0 0 0 0 0 0 0 0 0 0 0 0 0 0 0 0 0 0 0 0 0 0 0 0 0 0 0 0 0 0 0 0 0 0 0 0 0 0 0 0
0 0 0 0 0 0 0 0 0 0 0 0 0 0 0 0 0 0 0 0 0 0 0 0 0 0 0 0 0 0 0 0 0 0 0 0 0 0 0 0 0 0 0
0 0 0 0 0 0 0 0 0 0 0 0 0 0 0 0 0 0 0 0 0 0 0 0 0 0 0 0 0 0 0 0 0 0 0 0 0 0 0 0 0 0 0
0 0 0 0 0 0 0 0 0 0 0 0 0 0 0 0 0 0 0 0 0 0 0 0 0 0 0 0 0 0 0 0 0 0 0 0 0 0 0 0 0 0 0
0 0 0 0 0 0 0 0 0 0 0 0 0 0 0 0 0 0 0 0 0 0 0 0 0 0 0 0 0 0 0 0 0 0 0 0 0 0 0 0 0 0 0
0 0 0 0 0 0 0 0 0 0 0 0 0 0 0 0 0 0 0 0 0 0 0 0 0 0 0 0 0 0 0 0 0 0 0 0 0 0 0 0 0 0 0
0 0 0 0 0 0 0 0 0 0 0 0 0 0 0 0 0 0 0 0 0 0 0 0 0 0 0 0 0 0 0 0 0 0 0 0 0 0 0 0 0 0 0
0 0 0 0 0 0 0 0 0 0 0 0 0 0 0 0 0 0 0 0 0 0 0 0 0 0 0 0 0 0 0 0 0 0 0 0 0 0 0 0 0 0 0
0 0 0 0 0 0 0 0 0 0 0 0 0 0 0 0 0 0 0 0 0 0 0 0 0 0 0 0 0 0 0 0 0 0 0 0 0 0 0 0 0 0 0
0 0 0 0 0 0 0 0 0 0 0 0 0 0 0 0 0 0 0 0 0 0 0 0 0 0 0 0 0 0 0 0 0 0 0 0 0 0 0 0 0 0 0
0 0 0 0 0 0 0 0 0 0 0 0 0 0 0 0 0 0 0 0 0 0 0 0 0 0 0 0 0 0 0 0 0 0 0 0 0 0 0 0 0 0 0
0 0 0 0 0 0 0 0 0 0 0 0 0 0 0 0 0 0 0 0 0 0 0 0 0 0 0 0 0 0 0 0 0 0 0 0 0 0 0 0 0 0 0
0 0 0 0 0 0 0 0 0 0 0 0 0 0 0 0 0 0 0 0 0 0 0 0 0 0 0 0 0 0 0 0 0 0 0 0 0 0 0 0 0 0 0
0 0 0 0 0 0 0 0 0 0 0 0 0 0 0 0 0 0 0 0 0 0 0 0 0 0 0 0 0 0 0 0 0 0 0 0 0 0 0 0 0 0 0
0 0 0 0 0 0 0 0 0 0 0 0 0 0 0 0 0 0 0 0 0 0 0 0 0 0 0 0 0 0 0 0 0 0 0 0 0 0 0 0 0 0 0
0 0 0 0 0 0 0 0 0 0 0 0 0 0 0 0 0 0 0 0 0 0 0 0 0 0 0 0 0 0 0 0 0 0 0 0 0 0 0 0 0 0 0
0 0 0 0 0 0 0 0 0 0 0 0 0 0 0 0 0 0 0 0 0 0 0 0 0 0 0 0 0 0 0 0 0 0 0 0 0 0 0 0 0 0 0
0 0 0 0 0 0 0 0 0 0 0 0 0 0 0 0 0 0 0 0 0 0 0 0 0 0 0 0 0 0 0 0 0 0 0 0 0 0 0 0 0 0 0
0 0 0 0 0 0 0 0 0 0 0 0 0 0 0 0 0 0 0 0 0 0 0 0 0 0 0 0 0 0 0 0 0 0 0 0 0 0 0 0 0 0 0
0 0 0 0 0 0 0 0 0 0 0 0 0 0 0 0 0 0 0 0 0 0 0 0 0 0 0 0 0 0 0 0 0 0 0 0 0 0 0 0 0 0 0
Wind_Speed
6 5 4 3 3 3 3 3 4 4 4 4 4 5 5 4 4 3 3 10 11 10 9 8 8 8 8 8 8 8 9 9 10 10 10 10 11 11 11 11 11 11 11
7 6 5 4 4 3 3 4 5 4 3 3 4 4 4 4 4 4 3 6 10 9 8 7 7 8 8 8 9 9 9 9 10 10 10 11 11 11 11 11 11 11 12
8 7 6 5 4 4 5 4 4 4 3 3 3 3 3 4 4 4 3 3 4 7 7 6 6 7 8 9 9 9 9 9 10 10 11 11 11 11 12 12 12 12 13
10 8 7 6 5 5 5 5 4 4 3 3 2 1 2 3 4 4 3 3 2 2 3 4 4 5 7 9 10 11 10 9 10 10 11 11 12 12 13 13 14 14 14
10 9 7 6 7 5 5 5 3 3 2 2 1 1 1 2 3 4 4 4 3 3 2 2 3 3 4 7 9 11 11 10 10 10 11 12 12 13 14 15 15 16 16
11 9 7 8 8 6 4 4 4 3 2 2 2 2 1 1 2 3 4 4 3 4 3 2 1 0 2 5 8 10 11 10 10 10 11 12 13 14 15 16 17 17 17
11 10 8 8 8 7 7 7 4 4 2 1 3 2 2 2 1 1 2 2 2 2 3 2 1 1 2 4 6 9 11 11 11 11 12 12 14 15 16 18 19 19 18
13 11 12 10 8 7 7 6 5 4 2 1 3 3 1 2 2 1 0 2 1 1 1 1 0 1 2 2 5 10 11 11 11 12 13 14 16 17 18 20 20 20 19
13 12 13 12 10 9 9 7 6 6 4 1 1 4 4 4 2 2 1 1 1 1 1 1 1 2 3 3 4 7 10 11 13 14 15 17 18 19 20 21 21 21 20
13 13 14 13 12 9 10 8 6 5 6 4 2 1 2 3 3 1 2 1 1 1 0 1 2 3 4 3 5 9 12 13 14 16 18 19 21 22 22 23 22 22 21
10 11 13 12 12 9 10 9 7 6 4 5 4 3 2 2 2 3 2 3 3 2 1 2 3 3 4 4 3 7 12 14 16 18 20 22 23 24 24 24 23 23 23
6 9 11 11 11 10 10 9 8 8 5 5 3 3 3 3 3 3 3 3 3 3 3 3 2 1 2 3 6 13 15 16 18 20 22 24 24 25 25 25 24 24 25
6 11 10 10 9 9 9 9 8 7 6 6 4 3 3 3 3 3 3 2 2 3 3 2 2 1 2 2 5 17 14 18 20 22 24 25 25 24 24 25 25 25 25
8 10 9 9 9 10 10 9 7 6 6 6 5 4 3 2 2 3 3 3 1 2 3 4 2 0 1 3 9 16 8 19 22 24 24 24 24 24 24 24 25 25 25
7 9 9 10 9 9 9 9 7 7 7 5 5 4 3 2 2 2 3 3 3 2 3 3 3 2 3 4 10 6 5 17 23 23 23 23 23 24 24 24 25 25 25
10 11 11 10 10 9 8 7 7 7 6 5 3 4 3 2 2 2 2 2 3 4 4 4 4 4 5 7 13 7 8 22 21 23 23 23 23 24 25 25 25 25 25
12 12 12 11 10 9 8 7 6 6 6 4 3 3 2 2 2 2 2 2 3 3 5 5 3 3 5 7 8 7 8 8 10 21 23 24 24 24 25 25 25 25 26
12 12 12 11 11 9 8 8 7 5 5 4 3 2 2 2 3 3 3 3 3 4 5 7 4 4 6 7 8 8 10 10 7 19 24 24 24 25 25 25 26 26 26
12 12 12 12 11 10 9 7 7 5 4 3 2 0 2 2 3 3 4 4 4 5 4 5 6 4 4 6 7 9 9 8 10 14 20 22 24 25 25 26 26 26 26
13 12 12 12 12 11 9 8 7 6 5 3 2 1 2 3 5 5 4 5 5 5 5 5 6 5 5 6 6 7 9 6 8 10 15 17 21 23 24 25 26 26 27
13 13 13 12 11 9 8 8 7 5 4 2 1 2 3 5 7 6 5 5 5 4 4 5 6 6 7 6 7 6 11 9 8 9 9 7 9 8 11 19 23 25 26
13 13 12 11 9 7 11 10 7 4 2 0 2 3 5 5 7 10 12 12 11 7 5 4 5 8 9 8 8 9 10 12 10 4 6 9 8 10 8 7 19 27 27
13 12 10 9 8 8 10 8 6 3 1 1 2 3 3 4 7 5 9 13 12 15 15 10 9 9 11 10 11 12 11 12 13 8 9 13 8 11 9 12 24 28 29
10 8 8 7 6 6 7 6 6 3 1 1 2 2 3 4 6 8 6 6 6 7 11 9 9 11 11 10 11 12 11 11 10 9 7 11 11 11 11 8 21 28 28
8 6 5 5 4 4 6 5 5 2 1 2 3 3 4 5 12 15 8 6 7 8 14 19 20 18 21 22 18 9 7 10 12 10 5 6 7 8 10 11 14 22 22
6 5 4 3 3 2 4 3 3 2 2 3 3 4 8 10 14 15 8 7 9 8 8 10 11 13 11 13 18 8 6 9 10 9 3 4 5 7 9 5 6 7 12
Wind_Direction
179 175 177 175 174 154 143 132 121 114 102 87 84 97 108 116 107 91 93 105 104 101 93 82 69 56 45 34 27 22 16 13 10 6 3 1 359 355 351 347 343 340 337
178 176 175 176 173 157 144 136 132 120 100 87 83 96 114 125 120 113 100 108 112 108 98 82 65 50 37 28 21 17 13 11 7 3 359 357 354 351 346 342 338 334 329
178 176 174 173 165 146 133 121 113 99 89 80 80 94 118 136 144 137 124 110 114 117 113 94 71 50 35 23 13 8 6 6 3 358 355 352 349 346 342 338 334 330 325
176 171 170 167 153 141 136 130 122 99 86 84 85 75 107 141 156 159 149 147 143 138 132 123 88 54 34 18 8 1 356 356 355 353 350 347 344 342 338 334 331 326 320
171 166 165 158 148 140 138 135 118 119 117 112 121 114 107 146 162 165 174 181 183 173 178 166 119 72 28 9 3 356 347 344 345 346 343 340 338 336 333 329 325 320 316
169 161 158 155 148 140 135 129 122 103 111 125 90 75 44 82 155 171 185 188 196 193 186 164 121 354 358 352 353 348 341 335 334 336 334 332 330 330 328 324 320 315 311
168 162 158 157 155 152 152 142 124 117 109 121 101 58 12 24 96 182 188 183 193 192 174 170 184 231 304 326 337 335 332 324 322 324 324 322 322 323 322 318 314 309 306
170 167 163 165 160 147 147 151 138 130 123 123 136 124 80 331 324 10 260 194 180 126 125 132 225 274 281 287 293 317 321 315 312 314 314 315 316 316 316 313 309 306 304
173 170 168 164 164 160 165 166 154 146 147 137 141 149 155 205 252 318 353 35 123 116 84 43 2 323 299 280 280 297 303 305 304 304 307 310 311 311 311 309 307 304 303
175 171 169 167 166 164 164 168 158 150 141 149 139 105 134 144 156 245 314 343 4 116 65 358 342 331 326 312 304 307 308 305 301 303 305 308 309 309 308 306 304 303 303
175 172 169 166 166 164 163 161 154 151 145 152 155 149 126 93 115 151 248 306 325 301 301 310 323 342 341 354 341 333 327 317 310 308 307 307 307 307 306 305 304 304 303
168 173 169 166 165 162 163 160 154 151 145 140 140 143 147 150 168 162 204 250 278 291 300 298 317 350 10 23 358 346 337 325 317 311 308 306 306 306 305 305 304 302 300
174 179 170 166 163 159 154 149 144 144 141 139 140 138 131 137 138 144 163 217 260 288 300 301 259 6 66 4 337 334 329 321 315 310 306 304 305 305 304 303 300 297 296
173 166 159 154 152 151 149 142 137 135 130 131 135 133 130 135 136 148 160 162 258 292 285 274 293 216 317 332 323 326 319 316 312 307 304 304 304 303 300 297 296 295 294
142 146 145 145 145 145 142 139 136 131 129 125 132 135 132 137 133 141 148 156 175 247 271 264 280 278 319 316 309 308 300 308 306 304 304 303 301 299 298 297 295 294 293
145 146 144 143 140 137 135 129 127 126 123 123 131 140 140 142 144 155 165 173 177 195 243 248 246 271 295 302 306 311 296 306 306 303 299 300 299 298 296 296 295 294 294
144 146 144 141 138 131 127 121 118 123 125 126 134 154 171 167 175 190 189 191 201 197 246 262 245 269 280 284 295 288 288 284 287 297 299 299 298 297 297 296 296 295 293
140 139 137 134 129 122 118 119 122 120 124 129 133 146 192 201 210 212 211 221 227 222 236 271 271 267 268 276 282 285 296 294 287 295 297 298 298 297 296 295 294 293 294
131 130 128 126 121 115 110 109 111 107 99 95 90 113 254 236 240 237 233 236 240 246 238 263 281 269 269 277 284 284 283 281 285 291 296 297 295 295 294 294 295 296 296
123 120 117 114 111 108 106 105 101 91 81 67 42 318 268 246 243 244 243 243 246 254 258 266 278 282 279 278 278 288 295 279 283 289 287 288 290 293 293 294 294 294 293
110 109 107 102 101 100 101 99 93 88 76 48 342 304 286 272 262 260 255 245 240 245 256 265 279 290 293 296 294 291 296 296 282 274 275 275 280 276 280 285 290 289 287
98 99 99 100 97 99 108 105 105 101 100 345 307 305 298 291 293 301 301 296 289 280 277 272 281 288 292 290 291 291 295 300 297 264 277 287 279 280 276 268 282 286 287
91 90 92 96 100 111 116 115 115 117 101 332 312 314 319 321 329 304 295 297 297 296 295 294 289 285 287 288 287 287 285 287 291 294 294 291 284 283 279 282 288 289 289
92 95 99 105 114 131 134 130 122 114 87 324 308 301 297 297 301 296 272 271 267 277 284 283 269 271 274 274 270 282 291 293 286 280 273 283 286 283 284 278 285 285 285
96 97 108 125 134 150 156 151 140 142 233 284 283 287 301 291 302 308 304 290 282 278 290 291 290 292 295 300 302 300 295 296 295 292 271 267 278 289 284 274 274 280 284
105 113 111 117 134 153 189 193 169 173 244 273 284 289 309 314 310 312 304 292 292 287 282 289 293 296 294 291 297 287 275 284 290 292 254 256 284 305 296 256 251 266 277